Location: Burland Observatory
(39.4088°N, 105.4217°W)
Time: 15:44:11
(UTC-07:00)

Explorer 7 - Pass Details

Date: 09 December 2019
Orbit: 485 x 679 km, 50.3° (Epoch: 21 January)

Event Time Altitude Azimuth Distance (km) Brightness Sun altitude
Rises 17:26:31 0° 267° (W) 3,000 12.2 -9.3°
Reaches altitude 10° 17:29:05 10° 277° (W) 2,101 10.8 -9.7°
Maximum altitude 17:33:27 32° 340° (NNW) 1,157 8.4 -10.5°
Enters shadow 17:37:28 12° 42° (NE) 1,982 9.1 -11.2°
